Location: Bas Lanzent
(48.1360°N, 3.5871°W)
Time: 09:55:57
(UTC+00:00)

Cosmos 2333 Rocket - Pass Details

Date: 18 February 2020
Orbit: 841 x 860 km, 70.8° (Epoch: 09 April)

Event Time Altitude Azimuth Distance (km) Brightness Sun altitude
Exits shadow 03:19:55 20° 18° (NNE) 1,883 4.3 -39.2°
Drops below altitude 10° 03:21:37 10° 23° (NNE) 2,494 5.1 -38.9°
Sets 03:24:07 0° 27° (NNE) 3,431 6.0 -38.5°
